sat.trackr.live / text

‹ back to catalog

STARLINK-32008

NORAD 60028 · 2024-111N

PAYLOAD ACTIVE UNKNOWN

§ Identity

Operator
Country
US
Launch date
2024-06-08
Launch site
AFETR
Launch vehicle
Mass (kg)
RCS (m²)

Purposes: comms

External: N2YO · Heavens-Above · Gunter

§ Orbital elements

Epoch: 2026-05-25T02:23:17.092896Z

Period
94.11 min
Inclination
53.1603°
Eccentricity
0.0001346
Mean motion
15.30193884 rev/d
Perigee alt
474.3 km
Apogee alt
476.2 km
Semi-major
6,853.4 km
B*
1.4939e-5
RAAN
80.6000°
Arg perigee
66.4249°
Mean anomaly
293.6893°
Rev number
11,073

§ Raw data

STARLINK-320081 60028U 24111N   26145.09950339  .00000083  00000+0  14939-4 0  99912 60028  53.1603  80.6000 0001346  66.4249 293.6893 15.30193884110739

JSON: /api/v1/satellites/60028 · /tle

For live sub-satellite position, see the globe view (requires WebGL).

§ Visibility from observer

Set your observer location to see the next 7 days of passes ≥ 10°. The values pass through the URL so the page stays shareable.

No JS? Fill the form by hand. The geolocation button needs JavaScript.